Weather History for Cape Girardeau, MO

Change the Weather History Date:

Saturday, November 24, 2012

  Actual Average Record
Temperature  
Mean Temperature 31 °F 43 °F  
Max Temperature 40 °F 53 °F 69 °F (1966)
Min Temperature 21 °F 33 °F 11 °F (1970)
Degree Days  
Heating Degree Days 34 22  
Month to date heating degree days 446 408  
Since 1 July heating degree days 791 711  
Cooling Degree Days 0 0  
Month to date cooling degree days 0 0  
Year to date cooling degree days 1784 1451  
Moisture  
Dew Point 20 °F    
Average Humidity 64    
Maximum Humidity 84    
Minimum Humidity 44    
Precipitation  
Precipitation 0.00 in 0.15 in 3.31 in (1973)
Month to date precipitation 1.24 3.49  
Year to date precipitation 25.20 41.61  
Sea Level Pressure  
Sea Level Pressure 30.28 in    
Wind  
Wind Speed 5 mph (West)    
Max Wind Speed 14 mph    
Max Gust Speed 20 mph    
Visibility 10 miles    
Events      
T = Trace of Precipitation, MM = Missing Value Source: NWS Daily Summary

Daily Weather History Graph

Daily Weather History Graph

Search for Another Location

Airport:

Trip Planner

Search our weather history database for the weather conditions in past years. The results will help you decide how hot, cold, wet, or windy it might be!

Date:

Astronomy

Nov. 24, 2012 Rise Set
Actual Time 6:47 AM CST 4:42 PM CST
Civil Twilight 6:18 AM CST 5:11 PM CST
Nautical Twilight 5:46 AM CST 5:43 PM CST
Astronomical Twilight 5:15 AM CST 6:14 PM CST
Moon 2:24 PM CST (11/24) 3:07 AM CST (11/24)
Length of Visible Light 10h 52m
Length of Day
9h 55m
Waxing Gibbous, 87% of the Moon is Illuminated
Nov 24
Waxing Gibbous
Nov 28
Full
Dec 6
Last Quarter
Dec 13
New
Dec 19
First Quarter

Hourly Weather History & Observations

Time (CST) Temp. Windchill Dew Point Humidity Pressure Visibility Wind Dir Wind Speed Gust Speed Precip Events Conditions
12:53 AM 30.9 °F 24.3 °F 19.0 °F 61% 30.35 in 10.0 mi NNW 6.9 mph - N/A   Clear
1:53 AM 28.9 °F 21.9 °F 19.0 °F 67% 30.35 in 10.0 mi NNW 6.9 mph - N/A   Clear
2:53 AM 28.0 °F 21.7 °F 19.0 °F 69% 30.34 in 10.0 mi NNW 5.8 mph - N/A   Clear
3:53 AM 24.1 °F 19.7 °F 19.0 °F 81% 30.34 in 10.0 mi West 3.5 mph - N/A   Clear
4:53 AM 23.0 °F 15.8 °F 16.0 °F 74% 30.35 in 10.0 mi WNW 5.8 mph - N/A   Clear
5:53 AM 21.9 °F 14.5 °F 17.1 °F 82% 30.36 in 10.0 mi WNW 5.8 mph - N/A   Clear
6:53 AM 23.0 °F 17.0 °F 18.0 °F 81% 30.36 in 10.0 mi NW 4.6 mph - N/A   Clear
7:53 AM 28.0 °F 21.7 °F 21.0 °F 75% 30.38 in 10.0 mi WNW 5.8 mph - N/A   Clear
8:53 AM 30.0 °F 22.4 °F 18.0 °F 61% 30.38 in 10.0 mi WNW 8.1 mph - N/A   Clear
9:53 AM 32.0 °F 24.8 °F 18.0 °F 56% 30.38 in 10.0 mi NW 8.1 mph - N/A   Clear
10:53 AM 34.0 °F 28.8 °F 19.0 °F 54% 30.37 in 10.0 mi WNW 5.8 mph - N/A   Clear
11:53 AM 36.0 °F 32.1 °F 19.0 °F 50% 30.33 in 10.0 mi NW 4.6 mph - N/A   Clear
12:53 PM 37.9 °F 33.5 °F 19.9 °F 48% 30.30 in 10.0 mi NNW 5.8 mph - N/A   Clear
1:53 PM 39.0 °F - 19.0 °F 45% 30.27 in 10.0 mi Calm Calm - N/A   Clear
2:53 PM 39.0 °F - 19.0 °F 45% 30.26 in 10.0 mi Calm Calm - N/A   Clear
3:53 PM 39.9 °F - 19.9 °F 45% 30.24 in 10.0 mi Calm Calm - N/A   Clear
4:53 PM 36.0 °F 33.3 °F 21.0 °F 55% 30.22 in 10.0 mi SE 3.5 mph - N/A   Clear
5:53 PM 32.0 °F - 21.9 °F 66% 30.21 in 10.0 mi Calm Calm - N/A   Clear
6:53 PM 30.9 °F 25.2 °F 23.0 °F 72% 30.20 in 10.0 mi South 5.8 mph - N/A   Clear
7:53 PM 30.9 °F 26.2 °F 23.0 °F 72% 30.19 in 10.0 mi South 4.6 mph - N/A   Clear
8:53 PM 30.9 °F 25.2 °F 23.0 °F 72% 30.17 in 10.0 mi South 5.8 mph - N/A   Clear
9:53 PM 30.9 °F 24.3 °F 24.1 °F 76% 30.14 in 10.0 mi South 6.9 mph - N/A   Clear
10:53 PM 32.0 °F 25.6 °F 23.0 °F 69% 30.14 in 10.0 mi South 6.9 mph - N/A   Clear
11:53 PM 30.9 °F 25.2 °F 23.0 °F 72% 30.13 in 10.0 mi South 5.8 mph - N/A   Clear